TimeCST,TemperatureF,Dew PointF,Humidity,Sea Level PressureIn,VisibilityMPH,Wind Direction,Wind SpeedMPH,Gust SpeedMPH,PrecipitationIn,Events,Conditions,WindDirDegrees,DateUTC
12:53 AM,63.0,60.1,90,30.06,10.0,SSE,5.8,-,N/A,,Clear,160,2012-11-08 06:53:00
1:53 AM,62.6,60.8,94,30.09,10.0,SSE,4.6,-,N/A,,Clear,160,2012-11-08 07:53:00
2:53 AM,59.0,57.9,96,30.05,10.0,Calm,Calm,-,N/A,,Clear,0,2012-11-08 08:53:00
3:53 AM,57.0,55.9,96,30.04,10.0,Calm,Calm,-,N/A,,Clear,0,2012-11-08 09:53:00
4:53 AM,55.9,55.0,97,30.05,10.0,Calm,Calm,-,N/A,,Clear,0,2012-11-08 10:53:00
5:53 AM,55.9,54.0,93,30.06,10.0,Calm,Calm,-,N/A,,Clear,0,2012-11-08 11:53:00
6:53 AM,55.9,55.0,97,30.07,10.0,Calm,Calm,-,N/A,,Clear,0,2012-11-08 12:53:00
7:53 AM,59.0,57.0,93,30.09,9.0,Calm,Calm,-,N/A,Fog,Patches of Fog,0,2012-11-08 13:53:00
8:53 AM,64.0,60.1,87,30.11,7.0,ESE,3.5,-,N/A,Fog,Patches of Fog,110,2012-11-08 14:53:00
9:53 AM,72.0,61.0,68,30.11,10.0,South,11.5,-,N/A,,Scattered Clouds,190,2012-11-08 15:53:00
10:53 AM,75.9,60.1,58,30.09,10.0,South,13.8,18.4,N/A,,Partly Cloudy,180,2012-11-08 16:53:00
11:53 AM,78.1,55.9,46,30.06,10.0,SSE,15.0,20.7,N/A,,Scattered Clouds,150,2012-11-08 17:53:00
12:53 PM,80.1,53.1,39,30.03,10.0,South,18.4,23.0,N/A,,Scattered Clouds,170,2012-11-08 18:53:00
1:53 PM,80.1,53.1,39,29.99,10.0,South,15.0,20.7,N/A,,Mostly Cloudy,170,2012-11-08 19:53:00
2:53 PM,82.0,52.0,35,29.98,10.0,SSE,16.1,20.7,N/A,,Scattered Clouds,150,2012-11-08 20:53:00
3:53 PM,82.0,54.0,38,29.97,10.0,SSE,15.0,-,N/A,,Partly Cloudy,160,2012-11-08 21:53:00
4:53 PM,80.1,54.0,40,29.97,10.0,SSE,13.8,-,N/A,,Partly Cloudy,150,2012-11-08 22:53:00
5:53 PM,75.9,55.9,50,29.97,10.0,SSE,11.5,-,N/A,,Clear,150,2012-11-08 23:53:00
6:53 PM,73.0,60.1,64,29.99,10.0,SE,13.8,-,N/A,,Clear,130,2012-11-09 00:53:00
7:53 PM,72.0,62.1,71,30.01,10.0,SE,16.1,-,N/A,,Clear,140,2012-11-09 01:53:00
8:53 PM,70.0,63.0,78,30.02,10.0,SE,13.8,-,N/A,,Clear,140,2012-11-09 02:53:00
9:53 PM,69.1,64.0,84,30.02,10.0,SE,12.7,-,N/A,,Clear,140,2012-11-09 03:53:00
10:53 PM,68.0,64.0,87,30.02,10.0,SSE,10.4,-,N/A,,Clear,150,2012-11-09 04:53:00
11:53 PM,66.9,64.0,90,30.01,10.0,SSE,9.2,-,N/A,,Clear,160,2012-11-09 05:53:00